{"data":{"norad_id":57717,"epoch":"2026-05-25T01:53:52.518048Z","epoch_age_seconds":71239,"freshness":"FRESH","line1":"1 57717U 23129V   26145.07908007 -.00000034  00000+0  82944-5 0  9992","line2":"2 57717  43.0018  46.6379 0001313 263.8595  96.2107 15.27574500152364","mean_motion":15.275745,"eccentricity":0.0001313,"inclination_deg":43.0018,"raan_deg":46.6379,"arg_perigee_deg":263.8595,"mean_anomaly_deg":96.2107,"bstar":8.2944e-6,"rev_number":15236,"period_min":94.267088119106,"perigee_km":482.16468917089,"apogee_km":483.96644096447,"semimajor_km":6861.2025650677,"source":"CELESTRAK","updated_at":"2026-05-25T13:38:18.374742Z"}}